Location: Newark
(40.3500°N, 15.2333°E)
Time: 15:34:10
(UTC+00:00)

NOAA 15 - Pass Details

Date: 23 February 2020
Orbit: 797 x 813 km, 98.7° (Epoch: 01 April)

Event Time Altitude Azimuth Distance (km) Brightness Sun altitude
Rises 17:06:11 0° 152° (SSE) 3,319 7.6 -5.2°
Reaches altitude 10° 17:08:33 10° 148° (SSE) 2,393 6.8 -5.6°
Maximum altitude 17:13:42 54° 72° (ENE) 980 4.7 -6.6°
Drops below altitude 10° 17:18:53 10° 356° (N) 2,410 7.1 -7.6°
Sets 17:21:17 0° 352° (N) 3,346 7.8 -8.0°
